Home   Weather   Samsun   Past weeks

Flag for Turkey Past Weather in Samsun, Turkey — Yesterday and Last 2 Weeks

Now
41 °F

Partly cloudy.


Feels Like: 36 °F
Forecast: 39 / 59 °F
Wind: 8 mph from Southeast

Location: Samsun / Carsamba

Current Time: Jan 16, 2017 at 10:38:27 pm

Latest Report: Jan 16, 2017 at 9:50 pm


Visibility: 4 mi

Pressure: 30.07 "Hg

Humidity: 100%

Dew Point: 41 °F

Location of SamsunLocation

Past Weather in Samsun — Graph

°F

Samsun Temperature Yesterday

Maximum temperature yesterday: 59 °F (at 12:50 pm)
Minimum temperature yesterday: 39 °F (at 9:50 pm)
Average temperature yesterday: 48 °F

High & Low Weather Summary for the Past Weeks

 TemperatureHumidityPressure
High68 °F (Jan 6, 2:50 pm)100% (Jan 8, 9:50 am)30.27 "Hg (Jan 8, 9:50 am)
Low23 °F (Jan 10, 2:50 am)21% (Jan 7, 2:50 pm)29.53 "Hg (Jan 7, 4:50 pm)
Average43 °F62%30.02 "Hg
* Reported Jan 1 8:50 pm — Jan 16 8:50 pm, Samsun, Weather by CustomWeather, © 2017

Note: Actual official high and low records may vary slightly from our data, if they occured in-between our weather recording intervals... More about our weather records

Advertising

Samsun Weather History for the Previous 24 Hours

Scroll right to see more
 ConditionsComfort  
Time TempWeatherWind HumidityBarometerVisibility
8:50 pm
Mon, Jan 16
43 °FPartly cloudy.3 mph93%30.07 "Hg4 mi
7:50 pm45 °FPartly cloudy.2 mph87%30.07 "Hg4 mi
6:50 pm45 °FPartly cloudy.1 mph93%30.07 "Hg4 mi
5:50 pm46 °FPartly cloudy.7 mph82%30.07 "HgN/A
4:50 pm48 °FBroken clouds.9 mph76%30.09 "HgN/A
3:50 pm48 °FBroken clouds.9 mph76%30.09 "HgN/A
2:50 pm50 °FPartly sunny.10 mph71%30.09 "HgN/A
1:50 pm50 °FBroken clouds.8 mph71%30.09 "HgN/A
12:50 pm50 °FBroken clouds.7 mph71%30.09 "HgN/A
11:50 am50 °FBroken clouds.7 mph71%30.12 "HgN/A
10:50 am48 °FBroken clouds.5 mph82%30.15 "HgN/A
9:50 am43 °FBroken clouds.2 mph93%30.18 "HgN/A
8:50 am39 °FBroken clouds.1 mph93%30.18 "Hg4 mi
7:50 am39 °FPartly cloudy.No wind93%30.18 "Hg4 mi
6:50 am39 °FFog.No wind93%30.15 "Hg2 mi
5:50 am39 °FFog.No wind93%30.15 "Hg2 mi
4:50 am37 °FFog.3 mph93%30.15 "Hg2 mi
3:50 am39 °FPartly cloudy.2 mph93%30.12 "Hg4 mi
2:50 am43 °FPartly cloudy.No wind87%30.12 "HgN/A
1:50 am45 °FPartly cloudy.No wind87%30.09 "HgN/A
12:50 am45 °FPartly cloudy.5 mph81%30.07 "HgN/A
11:50 pm
Sun, Jan 15
43 °FPartly cloudy.1 mph76%30.09 "HgN/A
10:50 pm41 °FPartly cloudy.No wind81%30.09 "HgN/A
Weather by CustomWeather, © 2017

See weather overviewHow to use our weather pages